KAP3201 KMVY-KBOS

Flight info

Callsign KAP3201
Flight time 0h 27m
Altitude 7000
Route MVY MVY017 FREDO/N0165F060
Aircraft P212/L-SBDFGIRY/SB1

Departure

Time 2026-04-15 10:56
Airport Martha's Vineyard Airport (KMVY)

Arrival

Time 2026-04-15 11:24
Airport Boston Logan International Airport (KBOS)
Time Latitude Longitude Altitude Speed Heading
2026-04-15 10:45 41.38764 -70.61530 61 ft 0 kts 132°
2026-04-15 10:53 41.38763 -70.61529 61 ft 1 kts 129°
2026-04-15 10:53 41.38803 -70.61493 61 ft 12 kts 352°
2026-04-15 10:53 41.38845 -70.61541 61 ft 10 kts
2026-04-15 10:54 41.38908 -70.61472 61 ft 17 kts 42°
2026-04-15 10:54 41.39000 -70.61356 61 ft 19 kts 40°
2026-04-15 10:54 41.39111 -70.61241 56 ft 22 kts 40°
2026-04-15 10:54 41.39229 -70.61099 57 ft 24 kts 36°
2026-04-15 10:55 41.39361 -70.60953 58 ft 18 kts 44°
2026-04-15 10:55 41.39434 -70.60946 61 ft 10 kts 315°
2026-04-15 10:55 41.39473 -70.61019 61 ft 9 kts 263°
2026-04-15 10:55 41.39414 -70.61086 61 ft 23 kts 220°
2026-04-15 10:56 41.39144 -70.61396 55 ft 78 kts 221°
2026-04-15 10:56 41.38778 -70.62037 279 ft 96 kts 261°
2026-04-15 10:56 41.39162 -70.62774 588 ft 105 kts 325°
2026-04-15 10:56 41.39853 -70.62936 925 ft 102 kts
2026-04-15 10:57 41.40438 -70.62428 1182 ft 100 kts 20°
2026-04-15 10:57 41.41738 -70.62268 1660 ft 102 kts 358°
2026-04-15 10:57 41.42495 -70.62204 1805 ft 113 kts 356°
2026-04-15 10:58 41.43315 -70.62132 1989 ft 125 kts 357°
2026-04-15 10:58 41.44180 -70.62058 2362 ft 125 kts 356°
2026-04-15 10:58 41.45053 -70.61986 2735 ft 126 kts 357°
2026-04-15 10:58 41.45933 -70.61910 3037 ft 135 kts 356°
2026-04-15 10:59 41.46941 -70.61840 3054 ft 154 kts 357°
2026-04-15 10:59 41.48051 -70.61745 3064 ft 164 kts 358°
2026-04-15 10:59 41.49210 -70.61647 3060 ft 169 kts 358°
2026-04-15 10:59 41.50394 -70.61550 3058 ft 171 kts 358°
2026-04-15 11:00 41.51589 -70.61449 3055 ft 172 kts 358°
2026-04-15 11:00 41.52773 -70.61352 3049 ft 173 kts 358°
2026-04-15 11:00 41.53974 -70.61249 3045 ft 173 kts 358°
2026-04-15 11:00 41.55177 -70.61153 3042 ft 173 kts 358°
2026-04-15 11:01 41.56382 -70.61058 3049 ft 174 kts 358°
2026-04-15 11:01 41.57588 -70.60956 3037 ft 173 kts 358°
2026-04-15 11:01 41.58782 -70.60853 3033 ft 171 kts 358°
2026-04-15 11:01 41.59971 -70.60755 3033 ft 171 kts 358°
2026-04-15 11:02 41.61155 -70.60655 3031 ft 170 kts 358°
2026-04-15 11:02 41.62340 -70.60559 3030 ft 170 kts 358°
2026-04-15 11:02 41.63527 -70.60457 3035 ft 171 kts 358°
2026-04-15 11:02 41.64716 -70.60362 3032 ft 171 kts 358°
2026-04-15 11:03 41.65903 -70.60265 3030 ft 170 kts 357°
2026-04-15 11:03 41.67075 -70.60173 3026 ft 172 kts 358°
2026-04-15 11:03 41.68272 -70.60069 3028 ft 172 kts 358°
2026-04-15 11:03 41.69465 -70.59962 3030 ft 171 kts 358°
2026-04-15 11:04 41.70257 -70.59898 3029 ft 171 kts 358°
2026-04-15 11:04 41.71441 -70.59805 3027 ft 170 kts 357°
2026-04-15 11:04 41.72620 -70.59710 3026 ft 170 kts 358°
2026-04-15 11:04 41.73803 -70.59605 3023 ft 170 kts 358°
2026-04-15 11:05 41.74983 -70.59508 3026 ft 170 kts 358°
2026-04-15 11:05 41.76171 -70.59412 3040 ft 171 kts 357°
2026-04-15 11:05 41.77362 -70.59326 3020 ft 172 kts 357°
2026-04-15 11:05 41.78548 -70.59215 3024 ft 170 kts 358°
2026-04-15 11:06 41.79725 -70.59107 3027 ft 169 kts 358°
2026-04-15 11:06 41.80902 -70.59004 3022 ft 170 kts 357°
2026-04-15 11:06 41.82084 -70.58920 3026 ft 170 kts 356°
2026-04-15 11:06 41.83270 -70.58819 3022 ft 171 kts 358°
2026-04-15 11:07 41.84451 -70.58714 3023 ft 170 kts 357°
2026-04-15 11:07 41.85623 -70.58616 3019 ft 168 kts 357°
2026-04-15 11:07 41.86778 -70.58514 3021 ft 168 kts 357°
2026-04-15 11:07 41.87951 -70.58429 3023 ft 169 kts 356°
2026-04-15 11:08 41.89127 -70.58333 3023 ft 169 kts 356°
2026-04-15 11:08 41.90287 -70.58379 3019 ft 164 kts 344°
2026-04-15 11:08 41.91340 -70.58900 3016 ft 161 kts 329°
2026-04-15 11:08 41.92265 -70.59736 3020 ft 161 kts 321°
2026-04-15 11:09 41.93187 -70.60598 3021 ft 162 kts 323°
2026-04-15 11:09 41.94125 -70.61418 3026 ft 161 kts 323°
2026-04-15 11:09 41.95054 -70.62258 3026 ft 160 kts 323°
2026-04-15 11:09 41.95974 -70.63097 3026 ft 160 kts 323°
2026-04-15 11:10 41.96897 -70.63930 3031 ft 160 kts 323°
2026-04-15 11:10 41.97821 -70.64771 3024 ft 161 kts 324°
2026-04-15 11:10 41.98753 -70.65606 3023 ft 161 kts 323°
2026-04-15 11:10 41.99677 -70.66458 3023 ft 161 kts 323°
2026-04-15 11:11 42.00611 -70.67301 3015 ft 161 kts 324°
2026-04-15 11:11 42.01527 -70.68130 3014 ft 160 kts 323°
2026-04-15 11:11 42.02455 -70.68975 3016 ft 160 kts 324°
2026-04-15 11:11 42.03379 -70.69812 3017 ft 160 kts 323°
2026-04-15 11:12 42.04304 -70.70657 3018 ft 161 kts 324°
2026-04-15 11:12 42.05234 -70.71494 3016 ft 161 kts 324°
2026-04-15 11:12 42.06157 -70.72339 3014 ft 160 kts 323°
2026-04-15 11:12 42.07084 -70.73179 3014 ft 161 kts 324°
2026-04-15 11:13 42.08013 -70.74025 3011 ft 161 kts 323°
2026-04-15 11:13 42.08942 -70.74872 3011 ft 161 kts 324°
2026-04-15 11:13 42.09871 -70.75722 3013 ft 162 kts 324°
2026-04-15 11:13 42.10803 -70.76568 3014 ft 161 kts 324°
2026-04-15 11:14 42.11734 -70.77415 3014 ft 162 kts 323°
2026-04-15 11:14 42.12665 -70.78271 3015 ft 162 kts 323°
2026-04-15 11:14 42.13585 -70.79108 3015 ft 161 kts 324°
2026-04-15 11:14 42.14518 -70.79957 3015 ft 162 kts 324°
2026-04-15 11:15 42.15450 -70.80812 3014 ft 162 kts 323°
2026-04-15 11:15 42.16390 -70.81667 3016 ft 163 kts 324°
2026-04-15 11:15 42.17332 -70.82515 3014 ft 163 kts 326°
2026-04-15 11:15 42.18409 -70.83034 3010 ft 166 kts 343°
2026-04-15 11:16 42.19536 -70.83385 3011 ft 166 kts 342°
2026-04-15 11:16 42.20662 -70.83770 3012 ft 167 kts 342°
2026-04-15 11:16 42.21783 -70.84173 3015 ft 166 kts 342°
2026-04-15 11:16 42.22898 -70.84579 3015 ft 166 kts 342°
2026-04-15 11:17 42.24015 -70.84979 3015 ft 166 kts 341°
2026-04-15 11:17 42.25118 -70.85393 3018 ft 166 kts 341°
2026-04-15 11:17 42.26236 -70.85809 3021 ft 167 kts 342°
2026-04-15 11:17 42.27356 -70.86211 3022 ft 166 kts 342°
2026-04-15 11:18 42.28478 -70.86624 2887 ft 167 kts 342°
2026-04-15 11:18 42.29605 -70.87043 2694 ft 167 kts 342°
2026-04-15 11:18 42.30712 -70.87475 2491 ft 168 kts 342°
2026-04-15 11:18 42.31831 -70.87924 2300 ft 168 kts 342°
2026-04-15 11:19 42.32948 -70.88384 2110 ft 168 kts 342°
2026-04-15 11:19 42.34065 -70.88835 1911 ft 167 kts 342°
2026-04-15 11:19 42.35182 -70.89289 1713 ft 167 kts 342°
2026-04-15 11:19 42.36299 -70.89741 1508 ft 167 kts 342°
2026-04-15 11:20 42.37420 -70.90186 1306 ft 169 kts 342°
2026-04-15 11:20 42.38551 -70.90633 1102 ft 169 kts 342°
2026-04-15 11:20 42.39674 -70.91080 1019 ft 165 kts 342°
2026-04-15 11:20 42.40750 -70.91505 1008 ft 157 kts 342°
2026-04-15 11:21 42.41766 -70.91957 1000 ft 152 kts 332°
2026-04-15 11:21 42.42419 -70.92977 994 ft 147 kts 288°
2026-04-15 11:21 42.42519 -70.94332 999 ft 143 kts 275°
2026-04-15 11:21 42.42628 -70.95660 1000 ft 140 kts 278°
2026-04-15 11:22 42.42735 -70.96957 998 ft 138 kts 273°
2026-04-15 11:22 42.42404 -70.98141 989 ft 139 kts 227°
2026-04-15 11:22 42.41527 -70.98721 931 ft 145 kts 200°
2026-04-15 11:22 42.40524 -70.99154 691 ft 160 kts 200°
2026-04-15 11:23 42.39465 -70.99660 513 ft 159 kts 199°
2026-04-15 11:23 42.38466 -71.00152 273 ft 148 kts 198°
2026-04-15 11:23 42.37516 -71.00611 60 ft 141 kts 198°
2026-04-15 11:23 42.36682 -71.01006 19 ft 108 kts 199°
2026-04-15 11:24 42.36307 -71.01186 19 ft 9 kts 199°
2026-04-15 11:24 42.36290 -71.01207 19 ft 2 kts 288°
2026-04-15 11:24 42.36314 -71.01268 19 ft 14 kts 302°
2026-04-15 11:24 42.36362 -71.01394 19 ft 14 kts 261°
2026-04-15 11:25 42.36275 -71.01459 19 ft 16 kts 197°
2026-04-15 11:25 42.36216 -71.01497 19 ft 2 kts 253°
2026-04-15 11:25 42.36226 -71.01562 19 ft 9 kts 290°
2026-04-15 11:25 42.36249 -71.01653 19 ft 11 kts 276°
2026-04-15 11:26 42.36252 -71.01696 19 ft 0 kts 277°